Location: Cutler
(25.6150°N, 80.3110°W)
Time: 23:49:12
(UTC-04:00)

CUTE 1.7 + AOD 2 - Visible Passes

Search period start: 20 September 2018 00:00
Search period end: 30 September 2018 00:00
Orbit: 593 x 614 km, 97.5° (Epoch: 19 September)

Date Brightness Start Highest point End Pass type
(mag) Time Alt. Az. Time Alt. Az. Time Alt. Az.
20 Sep ? 20:00:17 10° SW 20:03:19 19° W 20:06:21 10° NW visible
21 Sep ? 20:13:32 10° SW 20:15:34 13° W 20:17:37 10° WNW visible
22 Sep ? 06:31:52 10° E 06:32:08 10° E 06:32:24 10° E visible
23 Sep ? 06:41:57 10° ENE 06:44:24 15° E 06:46:51 10° SE visible
26 Sep ? 19:36:49 10° SSW 19:40:42 37° W 19:44:35 10° NNW visible
27 Sep ? 19:49:27 10° SSW 19:52:56 25° W 19:56:24 10° NW visible
28 Sep ? 20:02:21 10° SW 20:05:10 18° W 20:08:00 10° NW visible
29 Sep ? 20:15:47 10° WSW 20:17:26 12° W 20:19:04 10° WNW visible
